Tracking 19145 objects as of 26-Apr-2018
HD Live streaming from Space Station
objects crossing your sky now

ARIANE 5 R/B

Track ARIANE 5 R/B now!


NORAD ID: 29275
Int'l Code: 2006-033D
Perigee: 299.4 km
Apogee: 33,091.6 km
Inclination: 6.4 °
Period: 581.1 minutes
Semi major axis: 23066 km
RCS: 37.7588 m2 (large)
Launch date: August 11, 2006
Source: France (FR)
Launch site: FRENCH GUIANA (FRGUI)

Note: This is a ROCKET BODY
aabbcc
Your satellite tracking list
Your tracking list is empty




NASA's NSSDC Master Catalog

Two Line Element Set (TLE):
1 29275U 06033D   18115.89385994 +.00000380 +00000-0 +14393-3 0  9992
2 29275 006.4170 059.8224 7108198 253.8296 023.1537 02.47817193101616
Source of the keplerian elements: AFSPC